カタログに戻る

STARLINK-11447

運用中通信VLEO
NORAD 62418·PAYLOAD·🇺🇸 United States

打ち上げ Dec 23, 2024 から Cape Canaveral Space Force Station

Loading…

次のパス (今後24時間)

TLE

最新Source: CelesTrak SupGP

元期: Sep 14, 2026, 13:56 UTC

1 62418C 24249K   26257.58104167  .00070372  00000+0  54696-3 0  2574
2 62418  43.0003 108.7145 0001624 261.1270  54.1924 15.70786689    14

AllMySatでSTARLINK-11447をリアルタイム追跡

Download on the App Store